Location: Taaricht
(32.5378°N, 5.4251°W)
Time: 16:50:27
(UTC+00:00)

COSMOS 2455 - Pass Details

Date: 09 April 2020
Orbit: 900 x 910 km, 67.1° (Epoch: 26 May)

Event Time Altitude Azimuth Distance (km) Brightness Sun altitude
Rises 20:04:03 0° 345° (NNW) 3,540 6.5 -16.3°
Reaches altitude 10° 20:06:52 10° 355° (N) 2,597 5.6 -16.9°
Maximum altitude 20:12:11 32° 57° (ENE) 1,522 3.7 -17.9°
Enters shadow 20:13:55 27° 87° (E) 1,670 3.7 -18.3°
